Location: Newark
(16.3678°N, 77.8722°E)
Time: 03:53:36
(UTC+00:00)

S-56A Canister/Altair - Pass Details

Date: 19 December 2019
Orbit: 634 x 2498 km, 38.9° (Epoch: 17 January)

Event Time Altitude Azimuth Distance (km) Brightness Sun altitude
Rises 09:29:17 0° 306° (NW) 6,174 12.3 33.6°
Reaches altitude 10° 09:33:24 10° 305° (NW) 5,135 12.0 32.8°
Maximum altitude 09:48:12 78° 222° (SW) 2,165 10.6 30.2°
Drops below altitude 10° 09:59:04 10° 136° (SE) 3,892 11.2 28.2°
Sets 10:01:46 0° 135° (SE) 4,655 11.5 27.7°
